CW9540 Weather Reports


time (UTC)temp
F
wind
direction
speed
knots
gust
knots
rain 1hr
in
rain 24hr
in
rain mn
in
humidity
%
barometer
mb
20260509112504 41 316 0.0 0.9 0.00 0.04 0.00 92 1006.6
20260509112003 41 66 0.0 0.9 0.00 0.04 0.00 92 1006.6
20260509111551 40 0 0.0 1.7 0.00 0.04 0.00 91 1007.4
20260509111004 40 188 0.0 0.9 0.00 0.04 0.00 92 1006.6
20260509110504 40 30 0.0 0.9 0.00 0.04 0.00 92 1006.7
20260509110049 39 0 0.0 0.9 0.00 0.04 0.00 91 1007.5
20260509110004 40 233 0.0 0.9 0.00 0.04 0.00 92 1006.6
20260509105003 39 351 0.0 0.9 0.00 0.04 0.00 92 1006.5
20260509104548 39 0 0.0 0.9 0.00 0.04 0.00 91 1007.3
20260509104503 39 227 0.0 0.9 0.00 0.04 0.00 92 1006.5
20260509104004 39 187 0.0 0.9 0.00 0.04 0.00 91 1006.5
20260509103504 39 57 0.0 0.9 0.00 0.04 0.00 91 1006.6
20260509103051 38 152 0.0 0.9 0.00 0.04 0.00 91 1007.3
20260509103003 39 167 0.0 0.9 0.00 0.04 0.00 91 1006.5
20260509102503 39 141 0.0 0.9 0.00 0.04 0.00 91 1006.6
20260509101555 38 0 0.0 0.9 0.00 0.04 0.00 91 1007.3
20260509101504 39 112 0.0 0.9 0.00 0.04 0.00 91 1006.5
20260509101003 39 184 0.0 0.9 0.00 0.04 0.00 91 1006.5
20260509100503 39 296 0.0 0.9 0.00 0.04 0.00 91 1006.5
20260509100049 38 0 0.0 0.9 0.00 0.04 0.00 91 1007.3
20260509095504 38 194 0.0 0.9 0.00 0.04 0.00 91 1006.5
20260509095003 38 96 0.0 0.9 0.00 0.04 0.00 91 1006.5
20260509094545 38 0 0.0 0.9 0.00 0.04 0.00 90 1007.4
20260509094504 38 106 0.0 0.9 0.00 0.04 0.00 91 1006.6
20260509093503 38 46 0.0 0.9 0.00 0.04 0.00 90 1006.6
20260509093056 37 0 0.0 0.9 0.00 0.04 0.00 90 1007.4
20260509093004 38 31 0.0 0.9 0.00 0.04 0.00 90 1006.6
20260509092504 38 28 0.0 0.9 0.00 0.04 0.00 90 1006.6
20260509091548 37 0 0.0 1.7 0.00 0.04 0.00 90 1007.4
20260509091503 38 53 0.0 1.7 0.00 0.04 0.00 90 1006.6
20260509091003 38 215 0.9 0.9 0.00 0.04 0.00 90 1006.6
20260509090503 38 76 0.0 0.9 0.00 0.04 0.00 91 1006.6
20260509090051 38 197 0.0 1.7 0.00 0.04 0.00 90 1007.5
20260509085003 38 214 0.0 0.9 0.00 0.04 0.00 91 1006.7
20260509084554 38 0 0.0 0.9 0.00 0.04 0.00 90 1007.5
20260509084504 38 313 0.9 0.9 0.00 0.04 0.00 91 1006.7
20260509084004 38 228 0.9 0.9 0.00 0.04 0.00 91 1006.7
20260509083504 38 3 0.0 0.9 0.00 0.04 0.00 91 1006.7
20260509083051 38 0 0.0 1.7 0.00 0.04 0.00 90 1007.6
20260509083004 38 118 0.0 0.9 0.00 0.04 0.00 90 1006.9
20260509082504 38 81 0.0 1.7 0.00 0.04 0.00 91 1007.0
20260509082003 38 211 0.9 1.7 0.00 0.04 0.00 91 1007.1
20260509081548 38 0 0.0 1.7 0.00 0.04 0.00 90 1007.8
20260509081504 38 102 0.0 0.9 0.00 0.04 0.00 91 1007.1
20260509080504 38 209 0.0 1.7 0.00 0.04 0.00 91 1007.2
20260509080053 37 0 0.0 1.7 0.00 0.04 0.00 90 1008.0
20260509080004 38 229 0.0 1.7 0.00 0.04 0.00 90 1007.2
20260509075503 38 225 0.9 0.9 0.00 0.04 0.00 90 1007.1
20260509075004 38 185 0.0 0.9 0.00 0.04 0.00 90 1007.2
20260509074544 37 0 0.0 0.9 0.00 0.04 0.00 89 1008.0
20260509074504 38 37 0.0 0.0 0.00 0.04 0.00 90 1007.2
20260509074003 38 64 0.0 0.9 0.00 0.04 0.00 90 1007.2
20260509073504 38 46 0.0 0.0 0.00 0.04 0.00 89 1007.3
20260509073157 37 0 0.0 0.9 0.00 0.04 0.00 89 1008.1
20260509073003 38 322 0.0 0.9 0.00 0.04 0.00 89 1007.4
20260509072503 38 179 0.0 0.9 0.00 0.04 0.00 89 1007.4
20260509071549 37 0 0.0 0.9 0.00 0.04 0.00 89 1008.3
20260509071504 38 33 0.0 0.9 0.00 0.04 0.00 89 1007.5
20260509071004 38 129 0.0 0.0 0.00 0.04 0.00 89 1007.5
20260509070503 38 63 0.0 0.9 0.00 0.04 0.00 89 1007.5
20260509070136 38 0 0.0 0.9 0.00 0.04 0.00 88 1008.4
20260509070004 38 163 0.9 0.9 0.00 0.04 0.00 89 1007.6
20260509065504 38 52 0.0 0.9 0.00 0.04 0.00 89 1007.7
20260509064612 38 0 0.0 0.9 0.00 0.04 0.00 89 1008.6
20260509064504 39 105 0.9 0.9 0.00 0.04 0.00 89 1007.8
20260509064003 39 98 0.9 0.9 0.00 0.04 0.00 89 1007.8
20260509063503 39 108 0.0 0.9 0.00 0.04 0.00 89 1007.9
20260509063058 38 0 0.0 1.7 0.00 0.04 0.00 88 1008.8
20260509063004 39 127 0.0 0.9 0.00 0.04 0.00 89 1008.0
20260509062503 39 142 0.0 1.7 0.00 0.04 0.00 88 1008.1
20260509062004 39 202 0.9 1.7 0.00 0.04 0.00 89 1008.2
20260509061551 39 223 0.0 0.9 0.00 0.04 0.00 88 1008.9
20260509060054 39 46 0.0 0.9 0.00 0.04 0.00 88 1009.1
20260509060004 39 31 0.0 0.9 0.00 0.04 0.00 88 1008.3
20260509055504 39 89 0.0 0.9 0.00 0.04 0.00 88 1008.3
20260509055003 39 88 0.0 0.0 0.00 0.04 0.00 88 1008.4
20260509054553 39 0 0.0 0.9 0.00 0.04 0.00 88 1009.1
20260509054504 40 50 0.0 0.9 0.00 0.04 0.00 88 1008.4
20260509054003 40 56 0.0 0.9 0.00 0.04 0.00 88 1008.5
20260509053504 40 16 0.0 0.9 0.00 0.04 0.00 88 1008.5
20260509053058 39 0 0.0 0.9 0.00 0.04 0.00 88 1009.4
20260509053004 40 30 0.0 0.9 0.00 0.04 0.00 88 1008.5
20260509052503 40 50 0.0 0.9 0.00 0.04 0.00 88 1008.6
20260509051548 40 0 0.0 0.9 0.00 0.04 0.00 88 1009.4
20260509051003 40 184 0.0 0.9 0.00 0.04 0.00 89 1008.6
20260509050504 40 73 0.0 0.9 0.00 0.04 0.00 88 1008.6
20260509050051 39 0 0.0 1.7 0.00 0.04 0.00 88 1009.6
20260509050003 40 204 0.9 0.9 0.00 0.04 0.00 88 1008.7
20260509045504 40 179 0.9 1.7 0.00 0.04 0.00 88 1008.7
20260509045004 40 197 0.9 0.9 0.00 0.04 0.00 88 1008.8
20260509044549 39 241 0.0 0.9 0.00 0.05 0.00 87 1009.7
20260509044504 40 138 0.0 0.9 0.00 0.04 0.00 88 1008.7
20260509043504 40 68 0.0 0.9 0.00 0.04 0.00 87 1008.9
20260509043045 40 0 0.0 0.9 0.00 0.05 0.00 86 1009.9
20260509043004 40 157 0.0 0.9 0.00 0.04 0.00 86 1009.0
20260509042004 40 156 0.0 0.9 0.00 0.04 0.00 85 1009.1
20260509041548 40 0 0.0 0.9 0.00 0.05 0.00 84 1009.9
20260509041506 40 101 0.0 0.0 0.00 0.04 0.00 85 1009.0
20260509040504 41 76 0.0 0.9 0.00 0.05 0.00 84 1009.0
20260509040052 40 0 0.0 0.9 0.00 0.05 0.00 84 1010.0
20260509040004 41 79 0.0 0.0 0.00 0.05 0.00 84 1009.0
20260509035503 41 49 0.0 0.9 0.00 0.05 0.05 84 1009.0
20260509035003 41 55 0.0 0.9 0.00 0.05 0.05 84 1009.0
20260509034549 41 0 0.0 0.9 0.00 0.05 0.05 83 1010.0
20260509034504 41 152 0.0 0.9 0.00 0.05 0.05 83 1009.0
20260509034003 41 40 0.0 0.9 0.00 0.05 0.05 83 1009.0
20260509033503 42 58 0.0 0.0 0.00 0.05 0.05 82 1009.1
20260509033045 41 0 0.0 0.9 0.00 0.05 0.05 81 1010.0
20260509033004 42 231 0.9 0.9 0.00 0.05 0.05 82 1009.1
20260509032004 42 10 0.0 0.9 0.00 0.05 0.05 81 1009.1
20260509031545 42 0 0.0 0.9 0.00 0.05 0.05 81 1010.1
20260509031504 42 325 0.0 0.9 0.00 0.05 0.05 81 1009.1
20260509031004 42 228 0.0 0.9 0.00 0.05 0.05 81 1009.2
20260509030504 43 99 0.0 0.9 0.00 0.05 0.05 81 1009.2
20260509030048 42 0 0.0 0.9 0.00 0.05 0.05 80 1010.1
20260509030003 43 39 0.9 0.9 0.00 0.05 0.05 81 1009.2
20260509025003 43 267 0.0 0.9 0.00 0.05 0.05 79 1009.2
20260509024545 43 0 0.0 0.9 0.00 0.05 0.05 78 1010.1
20260509024504 44 0 0.0 0.9 0.00 0.05 0.05 79 1009.2
20260509024003 44 255 0.0 0.9 0.00 0.05 0.05 78 1009.2
20260509023504 44 27 0.0 0.0 0.00 0.05 0.05 78 1009.3
20260509023046 44 0 0.0 0.9 0.00 0.05 0.05 77 1010.2
20260509022503 45 310 0.0 0.9 0.00 0.05 0.05 77 1009.3
20260509022003 45 3 0.0 0.0 0.00 0.05 0.05 76 1009.2
20260509021553 44 0 0.0 0.9 0.00 0.05 0.05 75 1010.2
20260509021004 45 180 0.0 0.9 0.00 0.05 0.05 74 1009.2
20260509020503 46 192 0.0 0.9 0.00 0.05 0.05 74 1009.3
20260509020053 45 0 0.0 0.9 0.00 0.05 0.05 73 1010.2
20260509015504 46 302 0.0 0.9 0.00 0.05 0.05 73 1009.3
20260509015003 47 311 0.0 0.9 0.00 0.05 0.05 72 1009.2
20260509014550 46 0 0.0 0.9 0.00 0.05 0.05 70 1010.1
20260509014503 47 339 0.0 0.9 0.00 0.05 0.05 70 1009.2
20260509014004 47 181 0.0 0.9 0.00 0.05 0.05 69 1009.2
20260509013503 48 154 0.0 0.9 0.00 0.05 0.05 68 1009.2
20260509013053 47 0 0.0 0.9 0.00 0.05 0.05 68 1010.1
20260509013003 48 69 0.0 0.9 0.00 0.05 0.05 68 1009.1
20260509012504 48 346 0.0 0.9 0.00 0.05 0.05 68 1009.1
20260509011550 48 0 0.0 0.9 0.00 0.05 0.05 66 1010.0
20260509011504 49 299 0.0 0.0 0.00 0.05 0.05 67 1009.0
20260509011003 50 24 0.0 0.9 0.00 0.05 0.05 66 1009.0
20260509010504 50 322 0.0 0.9 0.00 0.05 0.05 65 1008.9
20260509010051 50 0 0.0 0.9 0.00 0.05 0.05 62 1009.7
20260509005503 51 64 0.0 0.0 0.00 0.05 0.05 61 1008.6
20260509005004 51 49 0.0 0.9 0.00 0.05 0.05 59 1008.6
20260509004546 51 0 0.0 1.7 0.00 0.05 0.05 58 1009.4
20260509004504 52 86 0.0 0.9 0.00 0.05 0.05 58 1008.6
20260509004004 52 122 0.0 0.9 0.00 0.05 0.05 57 1008.5
20260509003050 53 117 0.0 0.9 0.00 0.05 0.05 54 1009.4
20260509002004 54 34 0.0 0.9 0.00 0.05 0.05 52 1008.5
20260509001548 54 0 0.0 0.9 0.00 0.05 0.05 50 1009.3
20260509001504 55 73 0.0 0.9 0.00 0.05 0.05 50 1008.5
20260509001004 55 62 0.0 0.9 0.00 0.05 0.05 50 1008.5
20260509000503 55 101 0.0 0.9 0.00 0.05 0.05 49 1008.4
20260509000049 55 0 0.0 0.9 0.00 0.05 0.05 49 1009.2
20260508235504 56 35 0.0 0.9 0.00 0.05 0.05 49 1008.5
20260508235004 56 357 0.0 0.9 0.00 0.05 0.05 48 1008.5
20260508234547 56 0 0.0 1.7 0.00 0.05 0.05 49 1009.2
20260508234504 56 41 0.0 0.9 0.00 0.05 0.05 48 1008.4
20260508234004 56 39 0.0 1.7 0.00 0.05 0.05 49 1008.3
20260508233503 57 38 0.9 1.7 0.00 0.05 0.05 47 1008.2
20260508233104 57 20 0.0 1.7 0.00 0.05 0.05 45 1009.0
20260508233003 57 20 0.0 1.7 0.00 0.05 0.05 46 1008.1
20260508231557 57 0 0.0 3.5 0.00 0.05 0.05 43 1008.9
20260508231503 58 16 0.9 1.7 0.00 0.05 0.05 44 1008.1
20260508231004 58 19 1.7 2.6 0.00 0.05 0.05 41 1008.0
20260508230503 59 6 0.9 2.6 0.00 0.05 0.05 40 1008.0
20260508230055 59 63 0.0 1.7 0.00 0.05 0.05 38 1008.9
20260508230003 59 29 0.0 1.7 0.00 0.05 0.05 37 1008.1
20260508225504 59 106 0.9 1.7 0.00 0.05 0.05 39 1008.2
20260508225004 60 57 0.9 1.7 0.00 0.05 0.05 37 1008.1
20260508224546 60 53 0.9 1.7 0.00 0.05 0.05 37 1009.0
20260508224504 60 1 0.9 1.7 0.00 0.05 0.05 38 1008.2
20260508223503 58 8 0.9 2.6 0.00 0.05 0.05 38 1008.1
20260508223051 58 253 0.9 3.5 0.00 0.05 0.05 36 1008.9
20260508222503 60 355 1.7 2.6 0.00 0.05 0.05 34 1008.1
20260508222003 60 171 0.9 2.6 0.00 0.05 0.05 36 1008.1
20260508221550 59 39 0.9 2.6 0.00 0.05 0.05 35 1008.9
20260508221004 59 41 1.7 2.6 0.00 0.05 0.05 34 1008.2
20260508220048 59 1 0.9 5.2 0.00 0.05 0.05 35 1009.0
20260508220004 60 329 1.7 2.6 0.00 0.05 0.05 35 1008.2
20260508215503 59 317 1.7 4.3 0.00 0.05 0.05 35 1008.2
20260508214551 62 1 0.9 6.1 0.00 0.05 0.05 34 1009.1
20260508214503 62 310 0.9 4.3 0.00 0.05 0.05 34 1008.2
20260508213504 61 238 1.7 2.6 0.00 0.05 0.05 34 1008.2
20260508213055 64 9 0.9 2.6 0.00 0.05 0.05 31 1009.1
20260508213003 65 108 1.7 2.6 0.00 0.05 0.05 33 1008.3
20260508212504 61 109 1.7 2.6 0.00 0.05 0.05 34 1008.3
20260508212003 65 345 0.9 2.6 0.00 0.05 0.05 33 1008.3
20260508211556 63 314 0.9 4.3 0.00 0.05 0.05 36 1009.3
20260508211504 62 75 1.7 2.6 0.00 0.05 0.05 34 1008.3
20260508211004 59 194 1.7 4.3 0.00 0.05 0.05 37 1008.3
20260508210503 59 308 1.7 5.2 0.00 0.05 0.05 37 1008.4
20260508210050 60 9 1.7 6.1 0.00 0.05 0.05 37 1009.2
20260508210003 60 350 1.7 2.6 0.00 0.05 0.05 38 1008.3
20260508205504 59 8 3.5 6.1 0.00 0.05 0.05 38 1008.4
20260508205004 61 12 1.7 2.6 0.00 0.05 0.05 34 1008.4
20260508204550 62 0 0.9 2.6 0.00 0.05 0.05 34 1009.4
20260508204504 63 355 0.9 2.6 0.00 0.05 0.05 36 1008.4
20260508204004 62 72 0.9 2.6 0.00 0.05 0.05 39 1008.4
20260508203504 57 358 1.7 5.2 0.00 0.05 0.05 42 1008.6
20260508203056 58 343 1.7 5.2 0.00 0.05 0.05 38 1009.5
20260508203004 58 359 1.7 2.6 0.00 0.05 0.05 38 1008.6
20260508202503 58 264 2.6 4.3 0.00 0.05 0.05 36 1008.7
20260508202003 59 276 1.7 5.2 0.00 0.05 0.05 37 1008.8
20260508201548 59 240 3.5 8.7 0.00 0.05 0.05 35 1009.7
20260508201503 60 225 5.2 8.7 0.00 0.05 0.05 34 1008.9
20260508201004 60 174 4.3 7.0 0.00 0.05 0.05 36 1008.9
20260508200503 58 229 2.6 7.8 0.00 0.05 0.05 39 1008.9
20260508200103 57 194 3.5 7.8 0.00 0.05 0.05 38 1009.7
20260508200003 58 204 4.3 7.0 0.00 0.05 0.05 37 1008.9
20260508195004 58 210 2.6 7.0 0.00 0.05 0.05 39 1009.0
20260508194550 58 243 2.6 6.1 0.00 0.05 0.05 39 1009.9
20260508194504 59 239 3.5 6.1 0.00 0.05 0.05 37 1009.0
20260508194003 58 322 1.7 2.6 0.00 0.05 0.05 38 1009.2
20260508193503 60 320 1.7 4.3 0.00 0.05 0.05 37 1009.3
20260508193048 58 354 3.5 9.6 0.00 0.05 0.05 39 1010.1
20260508193003 58 342 2.6 10.4 0.00 0.05 0.05 39 1009.5
20260508192003 58 166 2.6 7.0 0.00 0.05 0.05 39 1009.5
20260508191551 57 318 3.5 7.0 0.00 0.05 0.05 41 1010.2
20260508191004 60 185 1.7 5.2 0.00 0.05 0.05 37 1009.6
20260508190051 60 28 0.9 6.1 0.00 0.05 0.05 38 1010.2
20260508190004 59 118 1.7 2.6 0.00 0.05 0.05 39 1009.6
20260508185503 58 351 1.7 6.1 0.00 0.05 0.05 43 1009.7
20260508184553 60 283 1.7 6.1 0.00 0.05 0.05 40 1010.4
20260508184503 60 271 1.7 6.1 0.00 0.05 0.05 45 1009.6
20260508184004 58 315 0.9 2.6 0.00 0.05 0.05 42 1009.6
20260508183504 57 327 1.7 4.3 0.00 0.05 0.05 49 1009.7
20260508183051 56 322 1.7 7.8 0.00 0.05 0.05 44 1010.4
20260508183003 56 276 2.6 7.8 0.00 0.05 0.05 47 1009.7
20260508182004 62 256 1.7 4.3 0.00 0.05 0.05 42 1009.7
20260508181552 58 152 0.9 7.8 0.00 0.05 0.05 45 1010.5
20260508181503 58 192 1.7 6.1 0.00 0.05 0.05 46 1009.8
20260508181003 57 241 4.3 7.8 0.00 0.05 0.05 45 1009.8
20260508180503 57 297 1.7 6.1 0.00 0.05 0.05 48 1009.8
20260508180051 55 63 0.9 9.6 0.00 0.05 0.05 52 1010.6
20260508180004 55 163 1.7 7.8 0.00 0.05 0.05 52 1009.8
20260508175504 56 198 4.3 10.4 0.00 0.05 0.05 50 1009.9
20260508174608 54 243 4.3 8.7 0.00 0.05 0.05 50 1010.8
20260508174504 54 224 4.3 8.7 0.00 0.05 0.05 50 1009.9
20260508174003 53 184 6.1 8.7 0.00 0.05 0.05 52 1010.0
20260508173049 53 245 3.5 9.6 0.00 0.05 0.05 56 1011.0
20260508172504 55 233 2.6 7.0 0.00 0.05 0.05 54 1010.2
20260508172004 55 173 1.7 7.8 0.00 0.05 0.05 57 1010.1
20260508171551 54 243 3.5 8.7 0.00 0.05 0.05 52 1011.1
20260508171503 54 186 4.3 8.7 0.00 0.05 0.05 56 1010.2
20260508171004 53 195 5.2 7.8 0.00 0.05 0.05 56 1010.4
20260508170504 54 243 1.7 6.1 0.00 0.05 0.05 56 1010.4
20260508170053 53 178 1.7 7.8 0.00 0.05 0.05 57 1011.2
20260508170004 53 195 1.7 7.8 0.00 0.05 0.05 61 1010.4
20260508165503 51 231 2.6 7.0 0.00 0.05 0.05 60 1010.5
20260508165004 51 203 1.7 4.3 0.00 0.05 0.05 61 1010.6
20260508164552 51 0 0.9 4.3 0.00 0.05 0.05 59 1011.4
20260508164504 51 224 1.7 4.3 0.00 0.05 0.05 60 1010.6
20260508164003 52 251 1.7 4.3 0.00 0.05 0.05 61 1010.7
20260508163047 50 230 3.5 7.0 0.00 0.05 0.05 64 1011.6
20260508163004 51 209 4.3 7.0 0.00 0.05 0.05 64 1010.9
20260508162504 51 196 1.7 7.0 0.00 0.05 0.05 66 1011.0
20260508162004 49 213 2.6 5.2 0.00 0.05 0.05 65 1010.9
20260508161549 50 245 1.7 6.1 0.00 0.05 0.05 63 1011.7
20260508160503 50 253 2.6 6.1 0.00 0.05 0.05 67 1011.0
20260508160053 49 0 1.7 8.7 0.00 0.05 0.05 64 1011.7
20260508155504 51 207 4.3 8.7 0.00 0.05 0.05 66 1011.0
20260508155004 51 221 2.6 5.2 0.00 0.05 0.05 67 1011.1
20260508154552 48 232 2.6 7.0 0.00 0.05 0.05 68 1011.8
20260508154503 49 189 2.6 4.3 0.00 0.05 0.05 68 1011.0
20260508154004 49 243 2.6 7.0 0.00 0.05 0.05 68 1011.0
20260508153503 49 229 3.5 6.1 0.00 0.05 0.05 68 1011.0
20260508153052 48 211 4.3 7.8 0.00 0.05 0.05 69 1011.6
20260508153003 49 172 4.3 7.0 0.00 0.05 0.05 69 1011.0
20260508152504 49 249 2.6 5.2 0.00 0.05 0.05 69 1010.9
20260508152004 48 235 2.6 7.0 0.00 0.05 0.05 72 1010.9
20260508151558 48 234 2.6 7.0 0.00 0.05 0.05 71 1011.6
20260508151003 48 179 1.7 5.2 0.00 0.05 0.05 75 1011.0
20260508150504 48 204 2.6 7.0 0.00 0.05 0.05 74 1011.0
20260508150052 47 0 2.6 7.0 0.00 0.05 0.05 71 1011.6
20260508150004 48 220 3.5 7.0 0.00 0.05 0.05 72 1010.9
20260508145504 48 161 2.6 7.0 0.00 0.05 0.05 75 1010.8
20260508145003 47 185 1.7 5.2 0.00 0.05 0.05 77 1010.8
20260508144550 46 198 2.6 7.0 0.00 0.05 0.05 76 1011.5
20260508144004 46 154 3.5 7.0 0.00 0.05 0.05 79 1010.9
20260508143503 46 193 3.5 6.1 0.00 0.05 0.05 80 1010.9
20260508143056 45 138 3.5 6.1 0.00 0.05 0.05 79 1011.7
20260508143004 45 170 2.6 5.2 0.00 0.05 0.05 81 1011.0
20260508142504 44 207 2.6 5.2 0.00 0.05 0.05 83 1011.1
20260508142004 44 176 2.6 5.2 0.00 0.05 0.05 84 1011.1
20260508141550 44 219 1.7 3.5 0.00 0.05 0.05 85 1011.8
20260508141504 44 230 1.7 2.6 0.00 0.05 0.05 84 1011.1
20260508141003 44 209 1.7 2.6 0.00 0.05 0.05 84 1011.1
20260508140504 44 236 0.9 2.6 0.01 0.05 0.05 86 1011.1
20260508140058 43 236 0.9 3.5 0.01 0.05 0.05 84 1011.8
20260508140004 44 224 1.7 2.6 0.01 0.05 0.05 85 1011.2
20260508135504 44 224 1.7 2.6 0.01 0.05 0.05 85 1011.2
20260508135004 44 258 0.9 1.7 0.01 0.05 0.05 88 1011.2
20260508134553 43 0 0.0 2.6 0.01 0.05 0.05 86 1011.8
20260508134503 44 227 0.9 2.6 0.01 0.05 0.05 86 1011.1
20260508134003 44 232 0.9 2.6 0.01 0.05 0.05 87 1011.1
20260508133504 44 196 1.7 2.6 0.02 0.05 0.05 88 1011.1
20260508133050 43 234 0.9 4.3 0.02 0.05 0.05 87 1011.8
20260508133004 43 269 1.7 4.3 0.02 0.05 0.05 88 1011.2
20260508132503 43 220 1.7 2.6 0.03 0.05 0.05 88 1011.2
20260508132003 43 53 1.7 5.2 0.03 0.05 0.05 88 1011.1
20260508131556 43 215 1.7 4.3 0.03 0.05 0.05 88 1011.8
20260508131004 43 236 1.7 4.3 0.03 0.05 0.05 88 1011.2
20260508130503 43 242 0.9 2.6 0.03 0.04 0.04 88 1011.1
20260508130103 42 223 0.9 3.5 0.03 0.04 0.04 88 1011.7
20260508130004 43 224 1.7 2.6 0.03 0.04 0.04 88 1011.1
20260508125504 43 236 1.7 2.6 0.03 0.04 0.04 88 1011.1
20260508125004 43 351 0.9 2.6 0.03 0.04 0.04 89 1011.1
20260508124551 42 0 0.9 5.2 0.03 0.04 0.04 88 1011.8
20260508124504 43 255 0.9 2.6 0.03 0.04 0.04 89 1011.1
20260508124003 43 275 1.7 5.2 0.03 0.04 0.04 88 1011.0
20260508123504 43 232 1.7 2.6 0.02 0.03 0.03 89 1011.0
20260508123059 42 89 0.9 7.0 0.02 0.03 0.03 90 1011.6
20260508123004 43 245 1.7 6.1 0.02 0.03 0.03 91 1010.9
20260508122504 43 245 2.6 7.0 0.01 0.02 0.02 93 1010.9
20260508121546 42 193 0.9 2.6 0.01 0.02 0.02 94 1011.4
20260508121504 42 204 0.9 2.6 0.01 0.02 0.02 94 1010.5
20260508121003 42 60 0.0 1.7 0.01 0.02 0.02 94 1010.5
20260508120503 42 304 0.0 0.9 0.00 0.01 0.01 94 1010.3
20260508120053 41 0 0.0 1.7 0.00 0.01 0.01 94 1011.0
20260508120004 42 255 0.9 1.7 0.00 0.01 0.01 94 1010.2
20260508115505 42 335 0.0 0.9 0.00 0.01 0.01 94 1010.1
20260508115003 42 329 0.9 1.7 0.00 0.01 0.01 94 1010.1
20260508114553 41 206 0.0 2.6 0.00 0.01 0.01 93 1010.8
20260508114503 41 184 0.9 1.7 0.00 0.01 0.01 94 1010.0
20260508114004 41 181 0.9 2.6 0.00 0.01 0.01 94 1010.0
20260508113504 41 193 0.9 1.7 0.00 0.01 0.01 94 1010.0
20260508113050 41 0 0.0 0.9 0.00 0.01 0.01 94 1010.7
20260508113004 41 252 0.9 0.9 0.00 0.01 0.01 94 1009.9